DateTimeUTC,F1_A11,F1_S11,BsB_S11,BsG_S11,BsR_S11,BbsB_S11,BbsG_S11,BbsR_S11,BaB_A11,BaG_A11,BaR_A11,Tu_S11,T_S11,Uu_S11,U_S11,P_S11,T1_A11
2021-01-16T13:00:00Z,00000200,21000000,,,,,,,-000.22,0000.24,-000.23,16.4,23.8,,00.0,0643.2,30.9
2021-01-16T13:01:00Z,00000200,21000000,,,,,,,-000.07,-000.03,0000.16,16.4,23.8,,00.0,0643.3,30.9
2021-01-16T13:02:00Z,00000200,21000000,,,,,,,0000.01,-000.13,-000.21,16.4,23.8,,00.0,0643.4,30.9
2021-01-16T13:03:00Z,00000200,61000000,,,,,,,0000.58,0000.57,0000.65,16.4,23.8,,00.0,0643.4,30.9
2021-01-16T13:04:00Z,00000200,41000000,0000.21,-000.07,0000.08,0000.51,0000.10,0000.13,0000.58,0000.43,0000.36,16.6,23.6,,00.0,0644.5,30.9
2021-01-16T13:05:00Z,00000200,01000000,-000.41,0000.30,0000.14,0000.01,-000.44,0000.18,-000.04,-000.01,-000.13,16.7,23.6,,00.0,0644.5,30.9
2021-01-16T13:06:00Z,00000200,01000000,0000.42,0000.19,0000.23,-000.08,0000.23,0000.28,0000.21,0000.01,0000.29,16.8,23.6,,00.0,0644.5,30.9
2021-01-16T13:07:00Z,00000200,01000000,0000.09,0000.50,-000.03,0000.21,0000.07,0000.15,-000.06,0000.38,0000.07,16.8,23.6,,00.0,0644.5,30.9
2021-01-16T13:08:00Z,00000200,01000000,0000.20,0000.20,-000.15,0000.16,0000.32,-000.04,-000.04,0000.21,0000.28,16.8,23.6,,00.0,0644.6,30.9
2021-01-16T13:09:00Z,00000200,01000000,0000.08,0000.04,-000.03,-000.19,-000.02,-000.14,0000.03,-000.05,-000.18,16.8,23.6,,00.0,0644.6,30.9
2021-01-16T13:10:00Z,00000200,01000000,-000.72,-000.07,0000.03,-000.20,0000.11,0000.26,0000.26,-000.18,-000.22,16.7,23.6,,00.0,0644.6,30.9
2021-01-16T13:11:00Z,00000200,01000000,0000.28,-000.03,-000.03,0000.72,0000.11,0000.09,-000.43,0000.28,0000.01,16.7,23.5,,00.0,0644.6,30.9
2021-01-16T13:12:00Z,00000200,01000000,-000.07,0000.25,-000.25,0000.34,-000.04,-000.17,0000.53,-000.16,-000.07,16.7,23.5,,00.0,0644.6,30.9
2021-01-16T13:13:00Z,00000200,01000000,0000.42,0000.05,0000.03,0000.05,-000.04,0000.13,-000.10,0000.23,0000.23,16.7,23.5,,00.0,0644.6,30.9
2021-01-16T13:14:00Z,00000200,01000000,0000.10,0000.12,0000.11,0000.35,-000.04,0000.25,-000.08,-000.10,-000.40,16.7,23.5,,00.0,0644.6,30.9
2021-01-16T13:15:00Z,00000200,01000000,-000.16,0000.00,0000.05,0000.27,-000.01,0000.11,0000.04,-000.10,0000.28,16.7,23.5,,00.0,0644.6,30.9
2021-01-16T13:16:00Z,00000200,01000000,0000.38,0000.24,0000.17,0000.32,-000.03,0000.03,0000.27,0000.10,0000.32,16.7,23.4,,00.0,0644.6,30.9
2021-01-16T13:17:00Z,00000200,01000000,-000.26,0000.03,-000.04,-000.11,-000.27,0000.25,0000.10,0000.08,-000.02,16.7,23.4,,00.0,0644.5,30.9
2021-01-16T13:18:00Z,00000200,01000000,0000.07,0000.32,0000.38,0000.38,-000.06,0000.19,-000.16,0000.52,0000.01,16.7,23.4,,00.0,0644.5,30.9
2021-01-16T13:19:00Z,00000200,01000000,0000.05,0000.10,-000.03,0001.00,-000.20,0000.10,0000.44,-000.24,0000.33,16.8,23.5,,00.0,0644.5,30.9
2021-01-16T13:20:00Z,00000200,01000000,0000.04,0000.05,0000.10,0000.41,-000.02,0000.23,0000.20,0000.24,0000.23,16.9,23.5,,00.0,0644.4,30.9
2021-01-16T13:21:00Z,00000200,01000000,-000.13,0000.11,-000.09,0000.24,-000.07,0000.07,0000.08,0000.26,-000.13,17.0,23.6,,00.0,0644.4,31.0
2021-01-16T13:22:00Z,00000200,01000000,-000.41,0000.34,0000.11,0000.11,0000.14,0000.19,0000.09,0000.04,0000.20,17.1,23.7,,00.0,0644.4,31.0
2021-01-16T13:23:00Z,00000200,01010000,0000.14,0000.21,0000.15,0000.20,0000.14,0000.09,-000.04,-000.02,0000.32,17.2,23.7,,00.0,0644.4,31.0
2021-01-16T13:24:00Z,00000200,01000000,-000.27,-000.06,-000.09,0000.42,0000.07,0000.01,0000.08,0000.46,-000.08,17.3,23.8,,00.0,0644.4,31.0
2021-01-16T13:25:00Z,00000200,01000000,0000.22,0000.42,-000.11,0000.25,-000.11,0000.14,0000.08,0000.08,0000.03,17.4,23.8,,00.0,0644.4,31.0
2021-01-16T13:26:00Z,00000200,01000000,-000.17,-000.05,0000.17,-000.34,-000.03,0000.03,0000.10,-000.34,-000.25,17.5,23.9,,00.0,0644.4,31.0
2021-01-16T13:27:00Z,00000200,01000000,0000.55,0000.22,-000.01,0000.24,-000.09,0000.32,0000.19,0000.57,0000.09,17.6,23.9,,00.0,0644.5,31.0
2021-01-16T13:28:00Z,00000200,01000000,0000.18,0000.31,-000.11,0000.54,-000.29,0000.09,-000.06,-000.25,0000.22,17.6,24.0,,00.0,0644.5,31.1
2021-01-16T13:29:00Z,00000200,01000000,0000.21,0000.22,0000.00,0000.26,0000.01,0000.28,-000.05,0000.11,-000.55,17.7,24.1,,00.0,0644.4,31.0
2021-01-16T13:30:00Z,00000200,01000000,-000.73,-000.01,0000.05,-000.41,-000.01,0000.17,-000.04,-000.15,0000.62,17.8,24.1,,00.0,0644.5,31.1
2021-01-16T13:31:00Z,00000200,01000000,0000.00,0000.32,-000.04,0000.01,0000.01,-000.00,-000.45,-000.12,-000.41,17.9,24.2,,00.0,0644.6,31.1
2021-01-16T13:32:00Z,00000200,01000000,0000.38,0000.16,0000.00,0000.47,0000.04,0000.07,0000.28,0000.20,0000.26,18.0,24.2,,00.0,0644.6,31.1
2021-01-16T13:33:00Z,00000200,01000000,0000.15,0000.03,-000.10,0000.11,0000.08,0000.05,-000.21,-000.32,-000.47,18.0,24.3,,00.0,0644.6,31.1
2021-01-16T13:34:00Z,00000200,01000000,-000.02,-000.06,-000.18,-000.13,0000.10,-000.16,0000.11,0000.10,0000.40,18.1,24.3,,00.0,0644.6,31.0
2021-01-16T13:35:00Z,00000200,01000000,0000.16,0000.02,-000.05,-000.13,0000.18,0000.30,-000.10,-000.06,-000.16,18.2,24.4,,00.0,0644.6,31.0
2021-01-16T13:36:00Z,00000200,01000000,0000.04,-000.06,0000.16,0000.10,-000.08,-000.01,-000.41,-000.46,-000.10,18.2,24.4,,00.0,0644.6,31.0
2021-01-16T13:37:00Z,00000200,01000000,-000.44,-000.19,0000.18,0000.26,-000.29,-000.02,-000.03,0000.12,-000.23,18.1,24.3,,00.0,0644.6,30.9
2021-01-16T13:38:00Z,00000200,01000000,-000.04,0000.03,0000.13,-000.08,0000.14,0000.13,0000.15,-000.31,-000.11,17.9,24.2,,00.0,0644.6,30.9
2021-01-16T13:39:00Z,00000200,01000000,-000.37,0000.13,0000.07,-000.09,-000.09,0000.18,-000.28,-000.17,-000.23,17.8,24.1,,00.0,0644.6,30.8
2021-01-16T13:40:00Z,00000200,01000000,-000.17,0000.04,0000.07,0000.26,0000.14,0000.03,0000.03,0000.02,0000.16,17.7,24.1,,00.0,0644.7,30.8
2021-01-16T13:41:00Z,00000200,01000000,-000.05,0000.16,0000.01,-000.10,0000.41,0000.38,-000.26,-000.18,-000.13,17.6,24.0,,00.0,0644.8,30.8
2021-01-16T13:42:00Z,00000200,01000000,0000.32,0000.08,0000.14,-000.25,-000.08,0000.32,0000.22,0000.05,-000.04,17.5,24.0,,00.0,0644.8,30.8
2021-01-16T13:43:00Z,00000200,01000000,-000.09,-000.01,-000.03,-000.19,0000.07,0000.20,-000.32,-000.18,0000.06,17.4,24.0,,00.0,0644.8,30.9
2021-01-16T13:44:00Z,00000200,01000000,0000.43,0000.39,0000.06,0000.23,-000.02,0000.14,-000.06,-000.39,-000.56,17.4,23.9,,00.0,0644.8,30.9
2021-01-16T13:45:00Z,00000200,01000000,0000.26,0000.21,0000.04,-000.00,0000.12,0000.33,-001.47,-001.28,-000.50,17.3,23.9,,00.0,0644.9,30.9
2021-01-16T13:46:00Z,00000200,01000000,0000.12,-000.03,0000.13,0000.17,0000.00,-000.10,0000.18,0000.13,-000.19,17.3,23.9,,00.0,0644.9,30.8
2021-01-16T13:47:00Z,00000200,01000000,0000.63,0000.16,-000.01,0000.33,-000.15,0000.09,-000.14,-000.31,0000.12,17.2,23.8,,00.0,0644.9,30.8
2021-01-16T13:48:00Z,00000200,01000000,-000.24,0000.09,0000.02,0000.55,-000.15,0000.16,-000.48,-000.28,0000.00,17.2,23.8,,00.0,0644.9,30.8
2021-01-16T13:49:00Z,00000200,01000000,-000.11,0000.41,0000.04,0000.11,0000.10,0000.10,-000.05,-000.01,-000.03,17.2,23.8,,00.0,0644.9,30.9
2021-01-16T13:50:00Z,00000200,01000000,0000.32,-000.01,0000.08,0000.13,0000.23,0000.26,-000.08,0000.02,-000.28,17.2,23.8,,00.0,0644.9,30.9
2021-01-16T13:51:00Z,00000200,01000000,-000.59,0000.03,-000.02,-000.18,-000.23,0000.04,-000.30,0000.05,-000.17,17.2,23.8,,00.0,0644.9,30.9
2021-01-16T13:52:00Z,00000200,01000000,0000.43,-000.05,-000.18,0000.25,-000.05,-000.08,-000.01,0000.11,0000.29,17.3,23.8,,00.0,0644.9,30.9
2021-01-16T13:53:00Z,00000200,01000000,0000.50,-000.07,0000.10,0000.10,-000.09,0000.25,-000.04,-000.39,-000.09,17.3,23.9,,00.0,0644.9,30.9
2021-01-16T13:54:00Z,00000200,01000000,0000.58,0000.15,-000.21,0000.30,0000.12,0000.11,0000.17,-000.23,-000.21,17.4,23.9,,00.0,0644.9,30.9
2021-01-16T13:55:00Z,00000200,01000000,0000.03,-000.02,-000.23,0000.37,-000.16,0000.16,0000.01,0000.23,0000.18,17.4,23.9,,00.0,0644.9,30.9
2021-01-16T13:56:00Z,00000200,01000000,0000.16,0000.09,-000.05,0000.67,0000.05,0000.20,-000.26,0000.31,-000.11,17.5,24.0,,00.0,0644.9,31.0
2021-01-16T13:57:00Z,00000200,41000000,,,,,,,0000.95,0000.83,0000.82,17.6,24.0,,00.0,0644.9,31.0
2021-01-16T13:58:00Z,00000200,61000000,,,,,,,-000.22,-000.58,-000.22,17.3,24.1,,00.0,0644.0,31.0
2021-01-16T13:59:00Z,00000200,21000000,,,,,,,-000.77,-000.30,-000.28,17.3,24.2,,00.0,0644.0,31.0
